Wind_Speed
14 18 19 20 19 19 18 18 18 18 18 19 20 21 22 22 22 22 21 21 18 16 14 13 12 12 11 11 10 10 11 12 11 11 10 9 10 9 7 6 5 4 4 5 4 4 4 4 4 4 3 3 2 1 2 2 1 2 3 2 2 1 1 2 2 1 1 2 2 2 3 4 4 4 4 4 5 5 6 8 8 8 9 9 10
13 16 19 20 19 20 19 18 19 19 19 20 21 21 22 22 22 23 23 22 21 19 17 15 13 13 12 11 10 9 11 12 11 11 11 10 11 10 9 8 6 5 5 5 5 5 5 5 5 4 4 3 2 2 3 2 1 1 2 2 2 2 2 1 0 0 2 2 3 3 4 3 2 3 4 3 4 4 4 6 8 8 7 8 10
14 15 18 20 20 21 20 18 20 20 20 21 22 21 21 22 22 23 24 24 23 22 20 18 15 15 13 12 11 9 11 12 11 12 12 11 11 11 10 9 8 7 6 6 6 6 6 5 4 4 3 3 2 2 3 3 2 1 1 2 2 2 2 2 3 2 2 1 2 3 4 4 2 4 5 4 3 3 4 5 6 7 7 8 10
15 16 18 20 21 21 21 20 20 20 20 21 21 21 21 21 23 25 26 25 24 24 23 21 19 17 15 14 13 11 12 14 13 13 12 12 12 12 12 10 9 9 8 7 7 6 6 5 4 3 3 3 3 3 3 3 3 2 1 1 1 1 1 2 4 3 3 2 2 2 2 2 3 6 8 4 2 3 3 4 5 7 7 9 12
15 16 17 20 22 22 22 21 21 21 21 21 21 21 20 21 24 26 26 26 25 25 24 23 21 18 14 13 13 12 12 13 13 12 13 13 13 12 12 11 10 9 8 8 8 7 6 5 4 3 3 3 3 3 3 3 3 2 1 1 1 1 1 1 2 3 4 3 2 1 2 2 3 7 7 4 4 3 2 4 6 7 7 10 12
15 16 17 20 22 22 22 22 22 22 22 22 22 22 22 23 25 27 26 26 26 26 25 24 23 19 15 14 13 13 12 12 14 14 13 14 12 11 12 10 9 9 8 9 8 8 7 6 5 3 3 4 3 3 4 4 3 2 2 2 1 0 1 1 0 1 3 3 2 1 2 2 4 6 5 3 4 4 4 5 5 7 8 9 10
15 16 17 19 22 23 22 23 24 23 22 22 22 23 23 25 27 28 27 26 26 26 26 25 24 23 20 18 15 14 12 13 16 16 15 16 13 11 11 10 9 8 8 9 8 8 8 7 5 4 4 4 4 4 3 3 3 3 3 3 2 2 0 1 1 1 2 3 2 1 2 2 4 4 3 3 3 3 5 6 6 8 8 7 8
14 15 17 19 22 23 23 25 25 24 23 22 22 23 24 27 29 29 28 28 27 26 26 26 27 25 24 20 17 16 13 13 18 18 17 17 15 13 12 11 9 7 7 8 8 9 8 8 6 5 5 5 5 4 4 3 3 3 3 3 3 2 2 1 1 1 1 1 2 2 2 2 3 3 3 3 3 3 5 5 7 9 8 7 8
15 15 16 19 22 24 24 25 26 26 24 23 24 23 25 28 30 30 30 29 29 28 27 27 28 27 26 23 20 18 16 15 18 19 18 18 16 14 13 13 11 8 8 8 8 9 9 9 8 6 6 6 6 5 4 4 4 4 4 3 3 2 2 2 1 1 1 1 1 3 3 2 2 2 2 2 3 3 3 5 8 9 8 8 9
14 15 16 19 23 24 25 24 26 26 24 24 25 24 25 27 29 31 31 30 29 29 29 28 28 27 27 25 23 21 19 18 18 18 19 19 17 16 15 15 13 11 10 9 9 9 10 10 9 7 6 6 6 5 5 4 4 4 4 3 3 2 2 2 1 1 1 1 1 2 3 3 2 2 3 3 3 2 3 5 6 7 8 8 9
11 13 16 19 22 23 24 24 25 25 23 24 24 23 24 26 29 31 31 31 30 30 30 29 28 28 28 28 26 24 22 20 19 19 20 20 19 17 16 16 15 14 13 11 10 10 10 11 10 9 8 7 6 6 5 4 3 3 3 3 3 2 2 2 2 2 2 1 1 1 2 2 2 3 3 4 4 4 4 5 6 7 7 6 10
12 12 13 16 18 20 23 24 24 24 23 23 24 24 24 25 28 30 31 32 32 31 30 29 29 29 29 29 27 26 25 23 22 21 21 22 21 19 18 17 16 15 15 13 12 11 12 12 11 11 10 9 7 6 6 5 4 3 3 4 3 2 2 3 3 2 3 2 2 1 1 2 2 3 3 2 3 5 5 5 6 6 5 6 10
14 13 13 13 14 18 21 22 23 23 24 25 25 24 24 25 29 30 31 33 33 31 31 31 30 30 30 30 29 28 27 26 25 24 23 23 23 21 19 18 18 17 16 14 13 13 13 13 13 13 12 10 9 7 6 6 5 4 4 4 3 3 3 3 3 3 3 3 3 2 2 2 2 2 2 2 3 4 4 5 6 5 5 7 8
14 13 14 14 15 19 22 22 23 24 25 26 26 25 25 25 29 31 33 34 34 33 32 32 32 32 31 30 30 30 29 27 27 25 24 25 24 23 21 19 18 18 16 14 13 13 14 14 14 14 13 12 10 9 8 7 6 5 5 5 4 4 4 4 4 3 3 3 3 4 4 3 2 2 2 2 3 4 5 6 6 5 5 6 6
12 14 15 15 18 22 23 22 23 25 26 27 26 26 25 26 30 33 33 33 34 34 33 33 33 33 32 31 31 31 30 29 28 27 26 26 26 25 23 21 19 18 16 14 13 14 15 15 15 15 14 13 11 10 9 8 8 7 7 6 5 5 5 4 4 3 3 3 3 4 4 4 3 3 2 3 3 4 5 5 4 4 5 6 6
6 11 15 17 20 23 23 23 24 25 26 27 26 27 27 27 32 36 35 36 36 36 35 35 34 33 33 32 32 31 31 30 29 29 28 27 26 26 25 24 21 19 17 15 14 15 15 15 15 15 15 14 13 12 10 9 9 8 9 8 7 6 5 4 4 4 4 4 3 4 4 4 4 4 3 3 3 4 6 5 3 3 3 5 5
9 8 10 15 19 22 24 25 25 26 27 27 27 29 32 31 32 34 34 34 35 36 36 36 35 34 34 33 32 32 32 31 30 30 28 27 27 26 25 25 24 22 19 16 15 15 16 16 16 16 16 15 14 13 12 10 10 9 9 10 9 8 6 5 4 4 5 5 4 4 3 4 4 4 5 4 4 5 6 5 3 3 2 3 4
10 10 9 12 17 22 25 24 23 25 27 28 29 30 33 33 32 33 32 32 34 36 35 35 35 35 34 34 34 33 33 31 30 30 29 28 28 26 25 25 25 23 20 18 16 16 16 16 16 16 16 16 15 14 13 12 11 10 10 10 11 11 10 8 7 6 6 6 6 5 5 4 4 5 5 5 5 5 5 4 3 3 3 3 3
11 10 8 9 14 19 21 22 22 24 24 25 27 29 30 30 30 31 32 34 36 35 32 34 36 34 33 35 35 35 33 32 31 30 30 29 28 27 26 25 25 25 23 20 17 17 17 16 15 15 16 16 16 15 15 13 12 12 11 10 11 13 13 11 10 8 7 7 7 7 7 6 5 5 5 5 6 6 5 4 4 4 3 3 4
12 12 10 5 11 17 21 22 21 22 23 24 26 27 27 28 28 28 29 31 32 30 29 32 33 31 32 35 35 35 35 33 32 31 31 30 30 29 27 26 25 26 24 22 19 18 18 17 16 15 15 16 16 16 16 15 14 13 12 11 11 13 14 12 11 9 8 9 9 8 8 8 8 8 7 6 7 7 7 6 5 5 4 4 4
14 14 13 10 4 5 14 21 23 22 22 22 23 25 25 25 26 26 26 26 27 26 26 28 29 28 30 34 35 35 35 34 32 32 31 31 30 30 29 27 26 26 26 25 22 20 19 19 17 17 16 16 15 16 16 16 16 15 15 13 13 14 14 13 12 11 11 11 11 11 10 11 12 11 9 8 8 8 7 7 7 7 6 6 5
15 15 14 15 16 14 8 3 11 17 20 22 21 22 23 23 22 23 24 24 26 25 24 26 27 28 30 32 31 32 34 34 32 31 31 31 31 31 30 28 27 27 27 26 25 23 22 20 20 19 18 17 17 16 16 17 17 17 17 15 14 15 15 14 14 14 13 13 13 13 13 12 13 13 12 11 9 8 8 8 8 8 8 8 8
15 15 15 16 19 20 21 19 14 6 7 18 21 20 21 18 14 16 17 18 20 19 20 24 27 28 30 29 27 28 30 32 30 29 29 29 29 30 31 30 28 27 27 28 27 26 24 23 22 22 21 20 19 18 17 18 18 18 18 16 15 16 16 16 15 15 14 14 14 15 14 12 12 13 13 12 11 10 9 9 9 9 9 8 8
16 15 16 19 22 22 22 22 21 20 13 1 11 19 23 22 22 22 17 16 18 17 16 19 23 25 26 25 25 25 26 28 27 26 27 27 25 26 30 31 28 26 27 28 28 27 27 25 24 24 23 22 22 21 20 19 19 18 18 18 17 17 17 17 17 16 15 15 16 16 15 13 13 14 14 13 12 12 11 11 10 10 10 9 9
16 17 17 19 21 21 21 20 19 20 21 17 7 10 22 29 31 29 24 24 28 25 20 20 22 23 23 23 24 25 24 25 26 25 26 26 24 23 27 30 28 26 27 28 28 28 28 27 26 25 24 23 23 22 21 21 20 20 20 19 19 19 19 19 19 18 18 17 18 18 16 15 15 15 14 13 13 13 12 11 11 10 10 10 10
15 16 16 17 18 20 21 21 21 20 20 20 18 8 7 19 24 24 24 29 33 29 24 23 23 24 24 24 24 24 24 25 26 26 25 25 25 24 25 29 29 28 28 28 29 29 30 29 29 28 26 24 23 23 23 22 22 22 22 22 22 21 21 21 21 20 20 20 20 20 19 18 17 16 15 13 13 14 14 13 13 12 10 10 10
13 13 14 15 17 20 22 22 21 21 20 19 19 18 11 2 7 12 18 24 28 26 23 23 24 25 25 25 25 25 25 25 26 27 27 25 25 25 25 26 29 30 29 28 29 30 32 31 31 30 28 27 25 25 25 25 24 24 24 24 24 24 24 23 23 23 22 21 21 21 20 19 19 19 18 16 14 14 14 14 14 14 12 11 11
14 14 16 16 15 17 21 22 21 21 21 20 19 18 17 13 8 1 7 14 19 23 23 22 23 24 24 25 26 25 25 26 27 28 29 27 25 25 25 25 27 30 31 30 30 31 32 33 32 32 31 29 28 27 27 27 27 26 26 26 26 26 25 25 25 25 24 23 23 22 21 21 21 21 20 18 17 15 15 15 15 15 14 13 12
16 16 16 15 14 15 18 20 21 21 22 21 20 19 18 16 14 10 5 2 11 20 24 25 24 25 26 26 25 24 24 27 29 30 32 30 27 27 28 27 29 31 31 30 30 30 31 33 33 33 33 32 31 31 31 30 30 29 29 28 28 28 27 27 27 26 25 25 25 24 23 23 24 23 21 20 19 18 17 16 16 16 16 15 13
15 15 15 14 14 16 17 19 20 21 22 21 20 20 18 17 15 14 12 8 3 9 18 24 26 26 26 27 28 30 29 29 32 33 34 34 30 28 29 31 32 32 31 31 31 30 30 31 32 34 34 33 33 34 34 34 32 32 31 30 30 30 30 29 29 28 27 27 26 26 26 26 26 25 23 22 21 20 19 19 18 18 17 16 14
14 14 14 14 15 17 19 20 21 21 21 20 19 19 18 17 16 15 14 12 9 6 7 15 22 24 25 27 30 33 32 32 34 35 35 35 33 30 30 33 33 32 32 33 32 32 31 29 29 32 33 33 35 37 37 37 35 34 33 32 32 32 32 32 31 31 30 29 27 26 26 26 27 28 26 25 23 22 21 21 20 20 20 18 16
13 13 14 14 15 17 19 20 21 21 21 20 19 19 19 19 18 17 15 14 11 9 7 6 12 18 22 28 30 30 31 33 34 35 35 35 33 31 31 32 32 32 33 33 31 32 34 31 28 29 30 31 35 38 39 38 37 37 35 34 33 32 32 32 32 32 32 30 28 26 24 23 25 28 28 25 24 23 22 22 21 21 21 21 20
13 13 13 14 15 16 18 19 19 19 20 19 19 19 19 20 21 19 15 15 14 10 8 7 6 10 17 26 29 28 30 32 33 34 35 34 33 32 32 31 31 30 31 33 33 33 35 33 30 29 30 30 32 37 40 39 38 38 37 36 35 34 33 32 32 33 32 31 31 29 26 24 26 29 28 27 26 26 25 24 23 22 22 22 22
12 12 13 14 16 17 17 18 18 18 19 18 18 19 18 20 22 19 15 16 17 13 10 10 8 6 9 19 26 27 28 30 33 34 33 32 32 33 33 29 27 27 29 34 35 32 33 36 34 33 33 32 31 35 39 39 39 39 38 37 36 37 36 34 33 33 33 33 33 32 30 29 29 30 30 29 28 27 26 26 25 24 24 24 23
11 12 14 16 17 18 19 19 18 18 18 18 19 20 20 20 19 17 17 18 17 13 12 12 11 9 6 8 18 25 27 28 31 32 31 32 32 34 33 29 25 24 28 34 34 30 32 36 37 35 34 32 33 36 38 38 39 38 38 37 36 37 38 37 36 36 36 35 35 34 32 32 31 32 32 31 28 26 25 24 23 24 24 24 24
11 13 15 16 17 17 19 20 19 18 17 18 19 20 21 21 18 16 19 20 16 12 13 14 14 12 10 7 7 15 22 26 27 27 28 29 31 34 36 32 27 24 24 28 30 30 30 33 35 34 32 32 35 37 37 39 39 38 37 36 36 37 38 38 38 38 38 38 37 35 34 33 33 34 33 32 30 27 24 21 21 21 21 21 22
12 13 15 16 16 17 17 18 19 18 17 17 19 19 19 20 18 16 18 18 14 13 13 15 15 15 14 12 10 9 11 17 22 24 26 28 29 33 34 30 27 25 24 24 26 28 29 30 31 32 34 36 39 39 39 39 39 38 36 36 37 38 39 39 39 39 39 39 38 38 36 35 34 35 34 33 31 29 26 23 21 20 20 20 20
12 14 15 16 17 17 17 17 17 18 17 18 20 19 18 18 18 17 17 15 12 13 15 15 16 17 18 15 12 10 10 11 15 20 25 27 27 28 28 26 26 26 26 25 25 25 27 27 28 31 34 37 39 39 39 39 39 38 37 37 38 38 38 39 40 40 40 40 39 39 37 36 36 36 34 33 32 30 29 27 23 21 20 20 21
13 14 15 16 17 17 17 16 16 17 19 19 19 19 17 16 16 17 17 15 13 13 15 17 18 19 19 18 15 12 11 10 12 16 21 25 25 24 23 23 24 25 26 25 24 23 24 26 27 29 33 36 35 35 36 38 38 38 37 38 38 38 38 38 38 37 36 37 40 40 39 38 39 37 35 34 33 31 31 30 25 21 21 22 22
13 14 15 16 17 16 17 17 16 16 18 19 19 18 17 16 16 16 16 16 15 16 16 17 19 19 19 18 17 15 12 11 12 13 16 20 24 25 23 22 23 24 25 24 24 24 24 25 26 27 29 32 33 32 33 36 38 37 37 38 38 38 39 39 36 32 30 30 34 39 40 40 39 39 36 35 35 34 33 32 28 23 22 24 23
15 15 15 16 16 16 16 17 17 16 16 17 18 17 17 17 16 16 15 15 17 18 18 17 18 19 19 19 18 16 14 13 12 12 14 16 19 22 23 23 23 24 24 24 24 25 25 26 26 26 27 29 31 32 33 35 37 37 37 37 38 40 41 40 35 31 29 27 29 35 40 41 40 39 37 36 36 36 35 34 32 29 29 29 27
17 15 14 15 17 17 18 17 17 16 15 15 16 17 18 18 17 17 17 17 18 19 19 19 18 19 20 21 20 17 16 15 14 13 15 18 19 21 24 24 24 24 24 25 25 25 26 26 26 26 27 28 31 33 33 34 36 38 37 37 39 41 41 37 31 29 30 30 30 34 40 41 39 38 36 35 35 35 36 36 36 35 34 32 30
19 18 16 16 17 19 20 19 17 16 15 14 15 16 16 16 18 20 19 19 19 18 19 19 19 18 19 20 20 18 16 15 15 15 17 18 18 21 25 26 26 25 24 25 25 25 26 26 26 26 27 27 29 32 35 36 37 37 38 38 39 40 40 37 32 30 31 32 32 36 40 40 38 37 37 35 34 34 35 37 36 35 34 32 31
20 21 19 17 17 19 21 21 18 16 15 14 14 15 16 16 18 21 21 20 20 20 18 18 18 17 17 18 18 17 16 14 13 16 18 18 17 20 23 26 28 28 26 25 25 25 25 26 26 26 26 27 27 29 34 37 38 38 38 38 39 39 39 39 38 35 32 30 31 35 39 39 38 38 37 35 34 33 34 35 34 33 32 32 32
19 21 21 19 18 19 21 23 21 18 16 15 13 14 17 18 18 20 21 21 20 20 20 18 17 17 18 17 17 17 17 15 13 15 18 18 18 19 21 22 26 28 28 27 26 27 27 28 27 27 26 26 26 26 30 34 37 38 38 39 39 39 39 40 42 41 37 32 32 35 37 38 38 37 36 35 35 35 34 33 33 31 31 33 34
19 19 20 20 20 20 20 23 23 20 17 15 14 14 17 20 20 19 20 20 19 20 20 19 18 17 18 18 18 17 17 16 14 14 17 19 19 19 19 20 23 26 28 27 27 28 29 29 29 29 28 26 24 24 26 29 32 36 38 39 39 40 40 40 42 43 42 39 37 37 37 37 38 38 37 37 36 36 34 33 32 31 32 34 34
19 19 20 20 20 21 21 22 24 22 17 15 15 16 17 19 20 20 20 19 18 18 19 19 19 18 17 17 17 17 17 17 15 14 16 19 20 20 19 20 22 24 26 27 28 29 28 28 29 29 28 27 25 24 24 25 26 30 36 38 38 39 40 41 42 45 45 43 41 40 39 39 38 38 38 38 37 35 34 33 33 33 34 34 34
19 20 20 20 20 21 22 23 25 24 19 16 17 18 18 19 20 20 20 19 18 18 18 18 19 19 17 16 17 17 17 17 15 14 15 18 20 20 20 21 23 24 25 27 28 28 27 27 27 26 25 25 24 24 26 26 25 26 31 37 39 40 41 42 44 45 44 43 43 41 38 38 39 37 35 34 33 32 33 34 34 33 34 35 35
20 21 22 22 21 22 23 25 26 26 23 19 19 19 19 19 19 19 18 18 19 19 18 18 18 19 19 17 16 17 18 17 16 15 16 18 21 21 22 23 24 25 26 27 28 28 27 27 26 25 24 22 22 26 32 34 32 31 33 36 39 41 43 43 43 42 40 41 42 38 32 30 32 31 28 26 25 26 27 30 32 33 33 33 33
23 23 24 24 24 24 25 26 27 27 25 22 20 20 18 17 17 17 17 18 19 19 19 18 16 17 18 18 17 18 18 18 17 18 18 20 22 23 24 26 28 29 30 30 31 31 32 30 27 26 26 25 28 34 39 37 35 36 37 38 38 38 39 40 39 37 35 35 35 32 28 26 26 25 25 24 22 22 23 24 27 30 31 31 29
25 25 25 26 26 25 26 27 27 27 26 25 22 20 19 17 16 17 17 19 19 19 19 18 16 17 19 20 21 21 21 20 19 19 20 22 23 24 25 27 29 31 33 35 36 37 38 38 36 35 33 30 32 37 39 36 34 35 35 36 37 37 37 37 35 33 34 33 29 26 26 27 25 23 24 23 22 21 22 22 22 24 27 29 28
Wind_Direction
188 188 190 191 190 188 187 186 188 189 190 188 187 191 195 195 196 197 201 202 199 193 190 192 194 197 202 206 210 213 215 216 215 215 217 217 215 215 220 225 231 240 241 235 234 235 232 230 233 232 234 245 256 240 195 195 106 54 37 29 21 4 330 318 317 324 333 336 354 352 335 323 316 319 317 312 312 311 318 332 337 331 331 337 338
186 186 189 191 191 189 187 186 187 188 189 190 191 191 193 195 197 198 200 203 204 201 195 191 192 195 196 200 204 207 213 215 215 215 215 217 218 218 225 232 238 245 240 232 230 230 225 224 231 234 238 246 248 236 210 207 212 46 31 22 19 16 8 340 310 291 312 329 337 338 343 340 327 327 321 309 306 309 317 326 334 334 328 330 335
188 187 189 193 194 190 189 188 189 191 191 193 194 192 191 193 195 199 202 204 205 207 205 199 196 196 196 201 204 207 214 215 215 217 216 219 222 225 231 238 246 247 240 233 231 228 224 224 234 239 242 249 254 245 227 225 245 315 9 18 15 7 24 68 93 54 336 330 333 341 355 1 33 15 350 334 308 307 320 323 327 332 331 335 341
191 191 191 193 193 191 190 189 190 192 193 194 195 192 191 193 196 201 205 205 206 210 211 208 206 205 206 213 216 217 220 219 219 221 220 222 228 233 238 244 251 247 239 236 233 233 230 227 238 245 252 260 257 252 245 244 253 266 311 21 359 6 63 88 92 52 19 16 348 347 347 355 41 12 356 3 353 320 320 326 328 331 333 339 342
193 193 193 192 193 192 191 189 190 192 193 194 194 193 194 196 200 204 206 207 209 212 211 210 210 207 205 212 217 216 216 216 215 219 222 224 229 237 243 250 252 243 239 240 238 240 238 235 243 247 251 256 254 255 255 252 247 239 209 176 342 7 66 98 110 39 17 9 347 347 347 3 23 358 352 17 13 359 353 339 337 337 333 336 342
196 195 194 192 193 193 192 190 191 193 195 196 195 196 198 199 202 205 206 208 210 212 211 209 208 204 197 199 203 204 203 205 206 208 214 219 223 233 243 251 246 238 241 243 242 244 243 241 245 245 241 240 245 254 255 251 242 228 208 174 177 293 46 50 325 357 357 354 349 4 349 344 345 344 349 4 6 22 21 8 9 360 346 343 354
197 197 195 194 193 193 192 191 194 196 196 196 196 198 199 200 205 205 206 208 209 210 210 208 206 205 204 201 201 202 202 206 210 208 212 217 221 232 243 246 237 231 237 241 241 242 243 242 246 243 232 227 233 246 249 245 230 217 207 185 189 209 167 42 342 331 350 7 21 6 326 316 319 330 344 351 359 13 9 17 24 11 5 4 10
196 197 196 196 195 194 194 193 196 199 196 193 194 196 198 203 207 207 207 209 209 209 209 208 207 206 207 206 206 209 208 213 217 215 216 220 224 233 241 240 232 222 229 237 237 238 239 239 243 242 226 221 226 237 242 231 217 212 207 196 201 212 216 254 338 333 329 25 37 6 340 332 340 345 345 347 348 343 356 12 9 8 22 26 19
196 197 197 198 197 197 196 194 197 199 196 192 194 195 198 204 208 208 208 210 210 211 210 210 210 209 208 207 209 212 213 217 219 219 219 222 226 231 237 239 234 228 228 232 232 236 236 233 239 240 225 222 227 234 236 226 215 210 209 202 202 216 234 248 286 319 322 3 22 9 360 352 12 30 16 7 4 347 350 358 357 1 12 18 16
200 199 199 200 200 199 197 196 197 199 196 193 194 195 196 200 205 207 208 209 210 211 211 210 211 210 210 210 211 214 216 219 219 219 221 224 227 231 236 238 237 237 235 234 232 234 233 230 236 236 226 223 228 233 231 227 221 212 210 207 207 221 237 250 269 274 302 354 17 8 2 2 17 20 13 16 11 354 335 339 356 359 354 1 5
200 202 203 203 203 201 199 198 197 196 195 193 192 194 194 196 201 205 208 209 210 211 211 210 210 211 212 213 215 216 218 218 217 218 221 224 227 230 235 237 238 240 240 240 238 237 234 230 231 232 227 223 226 233 230 224 222 216 216 218 223 242 247 252 263 255 256 271 303 341 350 6 15 2 2 8 3 2 343 336 355 356 345 349 356
194 198 203 203 203 202 200 199 196 193 193 193 192 193 192 193 198 202 205 208 209 210 210 210 209 211 214 216 217 218 220 219 218 218 220 222 224 228 234 236 237 240 240 240 239 239 236 230 228 228 226 223 223 228 229 224 223 222 226 236 251 272 277 276 272 263 258 255 261 279 304 330 358 357 354 355 359 2 347 336 352 354 345 352 357
195 194 194 195 200 201 200 198 192 190 192 192 194 193 191 193 197 200 204 208 209 209 210 210 210 212 215 217 218 219 221 222 221 220 221 222 223 226 231 233 235 238 241 241 241 240 236 230 227 226 226 225 222 223 229 228 226 230 236 244 261 281 297 300 283 269 259 253 259 263 277 297 315 348 350 345 348 348 341 346 357 354 344 355 4
198 194 192 193 195 200 203 199 192 192 195 194 194 192 190 191 196 200 205 208 208 209 210 210 212 214 216 217 218 219 220 222 223 222 221 223 224 226 230 232 234 239 243 245 246 242 237 233 230 228 227 227 224 224 229 232 232 236 241 243 257 274 296 306 291 277 263 253 259 265 271 279 290 315 335 345 345 344 350 357 358 348 344 356 7
206 200 198 196 194 197 201 199 195 195 197 196 194 191 189 190 195 201 204 206 207 209 210 211 213 215 217 218 219 219 219 221 223 223 223 224 225 227 231 233 236 241 245 249 248 243 239 236 233 231 230 228 228 227 229 236 237 239 244 243 250 267 292 308 291 274 266 259 261 268 271 267 267 287 307 342 352 349 353 355 355 350 349 356 1
258 218 206 200 195 195 198 198 197 195 195 196 194 191 190 191 197 202 205 207 208 209 211 213 214 215 216 218 218 219 219 220 223 225 226 227 227 229 232 235 238 242 247 251 250 244 240 239 236 235 234 232 230 229 231 237 238 241 245 243 246 258 279 299 289 270 262 261 262 266 273 265 256 269 284 321 347 347 349 349 348 348 342 347 350
323 281 233 208 196 196 201 200 198 196 194 194 193 192 194 195 197 200 203 205 206 209 211 212 213 214 216 218 218 219 220 220 223 225 225 227 229 231 234 237 239 242 247 252 251 245 242 241 240 239 238 235 230 228 231 236 239 245 246 242 241 248 260 273 277 273 259 251 256 259 268 267 257 265 270 285 315 335 347 346 344 342 328 329 335
335 320 277 228 204 200 204 203 200 198 196 195 194 195 198 198 197 198 199 201 205 207 209 210 212 213 214 217 218 220 221 221 222 225 226 227 231 233 234 235 238 240 244 250 251 247 244 243 243 242 241 237 232 230 232 235 240 246 249 246 243 244 252 260 264 271 265 254 255 257 265 271 266 270 270 272 290 309 329 332 328 321 301 296 307
351 340 306 244 214 204 205 206 203 200 198 198 196 196 198 199 198 198 199 202 206 206 205 208 211 211 213 217 219 220 221 221 223 226 228 229 231 233 234 235 237 238 241 246 250 247 244 244 243 243 244 241 237 233 233 235 238 244 249 249 246 245 248 253 259 264 265 263 263 261 265 271 274 279 278 274 279 286 296 304 305 301 290 277 278
1 354 345 285 218 206 206 208 205 201 198 198 197 197 200 199 199 200 201 203 205 203 202 206 208 208 211 216 218 220 222 223 225 227 229 230 232 233 234 235 236 237 239 243 246 245 243 243 244 243 243 244 242 238 235 235 237 240 244 243 245 248 248 250 253 255 258 263 267 266 265 268 273 280 282 279 277 276 277 281 279 278 278 275 269
10 6 8 13 10 212 213 213 210 205 198 196 198 200 201 202 200 200 199 200 201 201 201 204 204 205 210 215 217 219 222 223 225 228 229 231 232 234 235 235 236 238 238 240 242 244 243 243 245 245 246 248 248 244 240 239 239 240 242 243 245 248 247 247 250 252 254 258 263 265 265 269 274 275 275 274 273 272 268 267 266 265 265 266 264
13 14 17 23 26 28 18 256 219 211 198 192 196 197 198 201 201 201 203 203 202 202 202 204 205 206 210 214 214 217 220 221 222 225 228 230 233 235 235 234 236 237 238 238 240 242 243 243 245 247 249 252 254 252 246 243 243 243 244 244 246 249 248 249 252 253 255 257 262 265 265 268 274 275 274 270 266 264 261 260 259 258 259 259 264
15 18 23 25 29 32 29 26 18 351 206 194 193 189 192 194 191 199 210 210 208 209 207 206 207 209 211 212 211 212 217 219 218 220 224 227 230 233 234 234 234 235 236 238 239 241 243 243 245 248 251 253 255 256 252 248 248 248 247 246 246 250 250 250 252 254 257 258 262 265 265 263 268 272 273 269 263 260 260 262 260 259 262 260 264
16 18 23 26 29 32 29 26 23 18 17 319 190 181 184 190 190 195 203 208 213 220 221 214 211 212 212 210 209 210 213 214 215 217 220 222 224 228 233 234 232 231 235 238 238 239 242 244 245 247 250 252 254 255 253 251 251 251 251 250 249 250 251 251 253 255 257 259 261 264 264 262 265 269 269 265 263 263 262 263 263 262 264 262 260
16 18 22 24 27 28 25 23 22 22 22 18 30 162 180 189 193 194 195 202 209 212 215 216 215 216 214 212 211 211 211 212 213 216 219 220 218 220 230 234 230 228 233 237 238 238 240 241 243 245 248 251 253 254 254 253 253 253 253 252 252 252 253 254 256 258 259 260 262 263 264 264 265 266 266 262 260 264 264 263 262 261 262 263 263
16 17 20 23 24 22 21 21 21 22 22 21 22 37 172 191 195 194 196 205 209 207 209 212 212 213 215 214 213 212 211 212 214 216 217 218 217 217 224 231 231 229 232 235 237 238 239 240 241 242 246 249 251 252 253 254 254 254 254 254 254 255 257 259 261 262 262 262 263 265 266 266 264 263 262 260 260 264 264 262 262 263 261 264 267
19 18 19 21 20 19 17 17 18 19 19 21 23 24 28 74 196 201 206 211 211 210 215 217 213 213 214 214 214 213 212 213 214 217 218 217 218 218 219 225 230 232 232 233 235 238 241 241 241 242 244 247 249 250 251 253 253 253 255 255 255 255 257 260 262 264 263 262 263 265 265 264 265 265 263 261 262 263 262 262 263 264 263 263 266
20 19 19 17 14 14 14 14 14 14 15 19 21 20 21 25 28 39 217 220 216 214 218 218 215 215 215 216 216 214 214 215 216 219 221 219 218 219 219 222 227 231 232 233 234 237 240 242 242 244 245 246 247 247 248 250 251 251 253 254 255 256 256 257 261 263 263 262 263 264 263 262 264 266 266 265 263 261 261 263 263 263 262 261 260
17 17 16 13 11 8 7 8 10 12 13 14 15 14 12 13 17 20 18 259 222 219 219 218 215 214 216 216 216 214 215 218 220 223 226 224 221 222 223 224 228 232 233 232 233 235 238 241 242 244 246 245 245 246 246 247 248 248 249 251 253 254 255 256 259 261 262 262 263 263 262 262 263 266 268 268 267 264 262 261 260 261 262 259 255
15 14 10 8 8 5 3 4 6 9 10 8 7 7 6 6 6 8 11 8 318 233 224 220 218 216 216 217 219 220 221 222 224 227 229 229 226 225 226 228 230 232 233 233 234 234 234 237 240 243 244 244 244 246 247 248 248 248 249 249 250 252 254 255 256 259 260 261 262 263 263 264 267 269 270 268 267 266 264 261 259 258 258 256 251
13 10 5 5 4 2 3 4 3 3 4 3 0 358 360 2 2 1 1 0 356 331 261 232 226 221 217 219 222 224 224 226 229 230 230 230 229 225 227 230 231 231 232 233 233 234 234 234 235 239 241 241 243 246 248 250 250 249 248 247 248 251 253 253 254 256 258 260 260 262 263 264 267 270 270 269 268 266 263 263 261 258 256 254 248
7 5 3 3 1 359 360 360 360 359 358 357 354 352 355 357 356 357 355 355 357 353 339 288 246 231 222 221 224 224 224 227 229 229 229 230 228 226 228 230 229 229 230 230 230 232 234 232 231 233 235 237 241 247 249 250 251 251 249 247 247 249 250 251 252 253 256 258 258 259 258 258 263 267 268 267 268 268 264 263 263 261 260 257 253
2 359 359 359 355 354 355 353 354 355 354 353 350 347 348 351 356 359 352 351 357 356 355 348 300 257 235 227 224 223 224 226 228 229 229 229 227 227 228 228 227 227 228 229 229 229 232 232 229 230 232 233 239 245 249 250 251 251 251 248 247 247 248 249 251 253 254 256 257 258 257 256 260 265 265 263 263 266 266 265 264 263 261 259 257
358 356 356 354 348 347 349 349 349 349 347 347 348 346 342 345 354 358 350 351 356 355 356 0 349 312 260 235 227 224 224 226 229 229 228 227 226 228 228 226 225 224 225 230 230 227 230 233 231 231 233 234 236 243 247 249 250 250 250 249 247 248 249 249 251 252 254 255 257 258 257 258 261 263 265 264 262 261 264 265 264 263 262 262 260
352 352 350 349 346 343 343 343 344 344 342 343 345 346 342 342 348 350 349 353 356 355 356 359 360 355 325 259 235 230 227 227 229 228 227 226 227 229 229 225 222 221 225 231 231 227 229 234 234 232 233 235 238 241 245 248 249 249 249 247 246 246 248 249 251 253 254 255 257 257 257 258 260 261 263 263 261 258 258 258 258 260 261 262 262
344 344 343 343 343 342 339 337 336 337 339 340 341 342 339 338 341 346 350 353 353 354 358 356 355 356 350 334 279 246 235 230 228 225 225 225 226 230 231 227 224 224 226 230 230 228 229 233 234 232 232 235 240 242 243 245 248 248 246 245 244 245 246 247 249 252 254 255 256 256 256 257 259 261 263 263 261 257 253 250 250 253 255 256 258
334 334 335 335 336 337 334 332 331 332 336 337 337 337 335 334 336 341 346 349 350 352 353 350 348 346 344 339 329 302 265 243 231 224 223 225 226 230 231 228 224 225 227 227 227 228 229 231 232 232 232 236 241 243 243 244 247 246 243 241 241 242 243 245 247 250 251 254 255 255 255 255 257 260 262 263 263 259 252 247 247 249 250 251 254
328 327 328 330 331 331 329 328 328 330 333 334 333 333 331 331 334 337 338 341 348 350 347 342 337 337 339 338 329 320 308 279 251 236 230 228 228 229 229 226 224 227 229 230 230 230 231 231 230 231 234 237 241 244 245 245 246 244 241 239 239 240 241 243 246 248 249 251 254 255 255 254 255 258 260 261 261 258 252 248 245 246 249 250 253
323 323 323 325 325 322 322 325 326 327 330 330 329 329 328 326 329 332 332 334 341 344 341 336 333 331 333 335 330 319 311 297 276 257 246 238 234 231 228 224 226 229 231 233 234 233 233 233 233 233 236 239 241 243 245 246 247 244 240 238 238 237 238 240 243 244 246 248 252 255 255 253 254 256 257 258 258 255 251 248 244 243 246 248 252
318 319 319 319 319 317 318 322 323 322 325 327 327 324 322 322 324 325 325 327 332 334 332 331 332 331 327 326 325 319 310 297 280 271 264 252 241 236 231 227 227 231 234 235 235 234 236 237 236 236 237 239 240 241 243 247 248 245 241 239 236 234 236 239 239 239 240 243 247 252 254 254 254 254 254 255 255 253 251 249 244 239 242 247 252
312 314 315 314 314 313 312 314 317 317 318 322 325 321 316 317 318 316 317 320 323 326 327 327 328 327 324 322 320 315 305 294 283 275 274 268 255 243 236 231 230 232 234 234 234 235 237 240 240 239 238 238 240 241 242 246 248 247 243 239 235 235 237 238 237 237 237 239 242 247 252 253 253 253 253 253 253 253 252 250 245 243 246 253 258
311 310 310 310 310 310 308 308 311 313 312 315 320 316 311 312 311 308 311 316 317 319 322 324 324 323 322 322 320 315 305 300 297 285 270 265 258 247 239 234 232 231 230 231 232 233 237 240 242 241 240 239 241 243 243 244 247 248 245 240 237 238 239 236 234 235 236 237 239 244 249 252 253 253 255 254 254 254 253 250 249 250 254 257 261
310 308 310 310 306 305 305 305 307 309 308 309 312 309 305 303 302 303 308 313 315 315 316 319 320 318 317 318 317 314 308 306 305 293 276 266 259 251 244 238 233 230 229 229 230 231 235 240 242 242 241 239 240 244 245 245 246 247 246 243 241 242 240 235 232 234 236 236 239 243 249 252 253 254 256 256 255 254 253 252 252 253 256 258 260
304 304 306 306 302 300 300 301 303 304 303 302 302 302 300 295 294 300 307 309 311 313 313 314 314 313 313 314 312 307 305 304 303 295 287 280 270 262 254 243 236 233 231 230 231 232 233 237 239 241 242 240 239 242 246 247 246 246 246 245 245 245 242 237 235 236 237 236 238 243 249 253 255 256 256 257 257 256 255 254 255 255 256 257 256
298 299 301 301 298 296 296 297 298 300 299 295 292 295 295 292 292 298 302 303 306 310 310 309 308 308 310 311 308 304 301 300 298 291 284 277 267 261 256 246 238 236 234 233 235 236 237 238 240 240 241 240 238 238 242 246 247 246 246 246 246 246 244 240 237 238 239 239 240 245 250 255 256 258 258 257 256 256 256 256 256 256 255 253 252
293 294 296 298 297 295 293 293 294 296 295 290 286 288 290 291 293 295 296 296 299 302 305 305 303 301 305 308 306 302 298 297 296 291 284 276 267 259 255 250 244 240 238 236 236 238 238 240 242 243 243 242 238 235 237 241 244 245 245 246 246 246 246 244 241 241 243 243 244 246 250 254 256 257 256 255 254 256 257 257 255 253 251 249 248
291 292 293 293 293 292 290 290 292 293 292 286 283 285 287 290 292 293 292 293 292 292 296 300 299 297 299 303 303 299 295 295 297 295 289 281 270 260 257 256 251 245 242 239 238 239 239 239 241 243 244 243 239 236 236 236 236 239 242 243 242 243 244 243 241 241 243 243 244 246 248 251 254 255 255 254 254 255 254 254 252 250 247 247 246
289 290 289 287 286 286 287 288 288 289 290 285 281 283 286 288 289 291 291 289 288 287 289 292 295 295 295 297 299 295 291 291 292 290 286 281 272 263 258 255 251 248 247 244 241 239 237 236 237 238 239 239 236 234 235 233 228 229 237 240 240 240 239 238 237 238 240 241 243 245 246 247 249 250 250 249 248 248 248 249 250 249 247 248 248
290 290 288 285 282 282 283 284 284 286 288 284 280 281 283 282 283 286 287 285 285 287 286 286 289 291 291 293 297 294 289 288 290 289 282 277 272 266 261 258 254 251 249 250 251 249 244 239 237 235 232 230 229 234 241 241 236 234 236 239 240 240 239 239 240 240 239 239 240 239 240 241 241 241 242 240 237 237 239 242 244 245 245 245 244
292 291 288 284 282 280 280 280 281 283 285 283 280 279 278 275 276 280 282 282 283 286 286 285 284 286 289 294 296 293 288 286 288 290 288 284 278 271 266 262 260 258 255 254 256 257 255 253 251 247 239 232 234 243 250 251 246 243 243 243 245 245 244 245 246 242 236 234 235 234 233 234 235 234 234 234 230 227 228 231 235 238 239 239 238
293 290 287 284 283 281 280 279 279 280 281 281 280 278 275 272 271 275 277 277 277 278 280 281 280 283 289 294 295 294 290 286 285 285 286 287 286 281 274 269 267 268 268 264 260 258 256 255 255 255 253 250 248 252 256 256 253 250 249 247 248 249 249 249 248 240 229 226 228 230 231 232 232 231 232 232 231 228 227 227 228 230 234 235 233
Height
807 811 813 816 819 821 824 826 828 830 832 834 835 837 839 841 843 845 847 849 852 854 856 858 860 861 863 864 866 867 868 869 870 871 872 873 874 875 876 877 878 878 879 880 881 881 882 883 883 884 885 885 886 887 887 887 888 888 888 889 889 889 889 890 890 891 891 891 891 891 890 890 890 890 890 890 890 890 889 889 889 889 889 888 888
806 809 812 815 817 820 823 824 826 829 830 833 834 836 838 840 842 844 846 848 850 852 854 856 858 860 862 864 865 867 868 869 870 871 872 873 873 875 876 876 877 878 879 880 881 881 882 883 883 884 885 885 886 887 887 888 888 888 889 889 889 889 889 890 890 890 891 891 890 890 890 889 889 889 889 889 889 889 889 889 889 888 888 888 887
805 807 810 813 816 818 821 823 825 827 829 831 833 835 837 839 841 842 844 846 848 851 853 855 857 859 861 863 865 866 867 869 870 870 871 872 873 874 875 876 877 878 879 880 880 881 882 883 883 884 885 885 886 887 887 887 888 888 889 889 889 889 889 890 890 890 891 891 891 891 891 890 890 889 888 889 889 889 889 889 888 888 888 887 887
804 805 807 810 813 816 818 821 823 826 828 829 831 834 835 837 839 841 843 845 847 849 851 854 856 858 860 862 864 866 867 868 869 870 871 872 873 874 875 875 877 878 878 880 880 881 882 882 883 884 884 885 886 886 887 887 888 888 889 889 889 889 890 890 890 891 891 891 891 892 891 891 893 890 888 888 888 888 888 888 888 887 887 887 886
803 804 804 807 810 813 816 818 821 824 826 827 829 832 834 835 837 839 842 844 846 847 850 853 855 857 860 861 863 864 866 867 868 869 870 871 872 873 874 875 876 877 878 879 880 881 881 882 883 884 884 885 885 886 887 887 887 888 888 889 889 889 890 890 891 891 891 891 891 892 892 894 894 891 889 889 888 887 888 888 887 887 887 886 885
799 801 802 804 807 810 813 816 819 821 823 825 828 830 832 834 836 838 840 842 844 846 848 851 853 856 858 860 861 863 864 865 866 868 869 870 871 872 873 874 875 876 877 878 879 880 881 882 883 883 884 885 885 886 886 887 887 888 888 889 889 889 890 890 891 891 891 891 891 892 893 894 893 890 891 890 888 887 887 887 887 886 886 885 885
796 798 799 801 804 807 810 813 816 818 821 823 826 828 830 832 834 836 839 841 843 845 847 849 852 854 856 857 859 861 862 863 865 866 868 869 871 872 873 874 875 876 877 878 879 880 881 882 882 883 884 884 885 886 886 887 887 887 888 888 889 889 890 890 891 891 891 891 891 892 892 892 892 891 891 891 891 889 887 886 886 886 885 885 884
794 796 797 799 801 804 807 810 813 815 819 821 824 826 828 830 833 835 837 839 841 843 845 847 850 851 854 856 857 859 861 862 864 866 867 868 870 871 872 873 874 875 876 877 878 879 880 881 882 883 883 884 885 885 886 887 887 887 888 888 889 889 889 890 890 891 891 891 891 892 892 891 891 891 891 891 891 891 888 885 886 886 885 885 884
791 793 795 796 799 801 804 807 810 813 816 819 821 823 826 828 831 833 835 837 839 842 844 846 848 850 852 854 856 858 860 861 863 865 866 868 869 870 871 872 873 874 875 876 877 878 879 880 881 882 883 884 884 885 886 886 887 887 888 888 888 889 889 889 890 890 890 891 891 891 891 891 891 891 891 890 890 891 889 886 885 885 884 885 884
789 791 792 794 797 799 802 805 808 811 814 816 819 821 824 826 829 831 833 835 838 840 842 844 846 849 850 852 854 856 858 860 862 864 865 867 868 869 870 871 872 873 874 875 876 877 878 880 881 882 883 883 884 885 885 886 886 887 888 888 888 889 889 889 889 890 890 890 891 891 891 891 891 890 890 889 889 890 889 886 884 885 884 884 884
790 791 792 794 796 798 801 803 805 809 812 814 816 819 822 824 826 829 831 834 836 838 841 843 845 847 848 850 852 854 856 858 861 862 864 866 867 868 869 870 871 872 873 874 875 876 878 879 880 881 882 883 883 884 885 885 886 887 887 888 888 888 888 889 889 889 889 890 890 891 891 890 890 890 890 890 889 888 888 886 885 885 885 884 884
788 791 792 793 796 797 799 801 803 806 809 811 814 817 819 822 824 827 829 831 834 836 838 841 843 845 847 848 850 852 854 856 858 861 862 864 865 867 868 869 870 871 872 873 874 876 877 878 879 880 881 882 883 883 884 885 886 886 887 887 888 888 888 888 889 889 889 889 890 890 890 890 890 890 890 889 889 888 888 887 885 885 885 884 884
782 786 789 791 793 794 796 799 801 803 806 808 811 814 816 819 821 824 827 829 831 834 836 839 841 843 845 847 849 850 852 854 857 859 861 862 864 865 867 868 869 870 871 872 873 875 876 877 878 879 880 881 882 883 883 884 885 885 886 887 887 887 887 887 888 888 888 889 889 889 889 889 889 889 889 889 888 888 888 886 886 886 885 884 884
778 781 783 785 787 790 793 795 798 800 802 805 808 811 813 816 819 821 824 826 829 831 834 836 838 840 843 845 847 849 850 852 855 857 859 861 862 864 865 867 868 869 870 871 872 873 874 875 877 878 879 880 881 882 882 883 884 884 885 886 886 886 887 887 887 887 888 888 888 889 888 889 889 888 888 888 888 887 887 886 886 885 884 883 883
776 777 779 780 782 786 789 791 794 797 799 802 805 807 810 812 815 818 821 823 826 829 831 833 836 838 840 843 845 847 848 850 853 855 857 859 861 862 864 865 867 868 869 870 871 872 873 874 875 877 878 879 880 881 881 882 883 883 884 885 885 886 886 886 886 887 887 887 887 888 888 888 888 888 888 887 887 887 887 887 886 886 885 884 882
777 776 775 776 778 782 785 787 790 792 796 799 801 804 806 809 812 814 817 820 822 825 828 830 833 836 838 840 843 845 847 849 850 852 855 857 859 860 862 864 865 867 868 869 870 871 872 873 874 875 876 878 879 880 881 881 882 882 883 884 885 885 885 885 886 886 886 886 887 887 887 887 887 887 887 887 887 887 886 886 886 886 887 886 884
782 778 775 774 775 779 780 782 785 788 792 795 798 800 802 805 809 811 815 817 820 822 825 828 830 833 835 838 840 842 844 846 848 850 853 855 857 859 860 862 863 865 867 867 868 869 870 871 872 874 875 876 878 879 880 880 881 881 882 883 883 884 884 885 885 885 885 886 886 886 886 886 886 886 886 886 886 886 885 885 886 885 886 886 886
784 779 775 773 774 776 777 780 784 786 789 791 794 797 800 803 806 808 812 814 817 820 822 825 827 830 833 835 838 840 842 844 846 848 851 853 855 857 858 860 861 863 865 866 867 868 869 870 871 872 873 875 876 878 879 879 880 880 881 881 882 883 883 883 884 884 884 885 885 885 885 885 885 885 885 885 885 885 885 885 885 885 885 885 885
785 780 776 773 773 775 776 780 783 785 787 790 792 796 798 801 804 806 809 811 814 817 819 822 824 827 830 832 835 837 839 842 844 846 848 850 852 854 856 858 859 861 863 864 865 866 867 868 869 871 872 873 875 876 877 878 879 879 879 880 880 881 881 882 882 883 883 883 883 884 884 884 884 884 884 884 884 883 884 884 883 883 884 884 883
788 783 777 772 771 774 776 778 781 782 785 788 791 794 797 800 803 805 808 810 812 815 817 820 822 825 827 829 832 835 837 840 842 844 846 847 850 852 854 856 857 859 861 862 864 865 865 867 868 869 870 872 873 874 876 877 877 878 878 879 879 879 880 880 881 881 882 882 882 882 882 882 883 882 882 883 882 882 882 882 882 882 882 882 882
791 787 781 776 773 774 775 776 779 780 783 786 789 793 796 799 801 804 807 809 812 815 816 818 821 823 825 827 830 832 835 837 839 841 843 845 847 849 851 854 855 857 859 860 862 863 864 865 866 867 869 870 871 873 874 875 876 876 876 877 877 877 878 878 879 880 880 880 880 880 881 881 881 881 881 881 881 881 881 881 881 881 881 881 880
796 792 787 783 779 778 778 778 779 780 781 784 788 791 794 797 801 805 807 809 811 813 815 817 819 821 823 825 828 830 832 835 837 839 840 842 844 846 849 851 853 855 856 858 859 860 862 863 864 865 867 868 869 871 872 873 874 874 875 875 875 875 876 876 877 877 878 878 878 878 879 879 879 879 879 879 879 879 879 879 879 879 879 879 879
801 797 792 790 787 784 783 782 782 782 782 784 787 789 793 797 803 808 811 812 814 815 816 817 818 819 821 824 826 828 830 832 835 836 838 840 841 843 846 848 850 852 854 855 857 858 859 861 862 863 864 866 867 868 870 871 872 872 873 874 874 874 874 874 875 875 875 876 876 876 877 877 877 877 877 877 878 878 878 878 878 877 877 877 877
805 801 798 795 792 789 789 788 788 788 787 787 788 789 791 795 800 805 809 813 815 817 818 818 818 819 821 823 824 826 828 830 832 834 835 837 839 841 843 845 847 849 851 852 854 855 857 858 859 860 861 863 864 866 867 868 869 870 871 872 872 872 872 872 873 873 873 874 874 874 874 875 875 875 875 875 875 876 876 876 876 876 876 876 876
810 806 802 799 797 796 796 795 794 793 792 791 791 791 792 793 796 800 804 806 807 811 813 815 816 818 820 821 822 824 826 827 829 831 833 835 837 839 840 842 844 846 848 849 851 852 854 855 856 857 858 860 861 863 864 865 866 868 868 869 870 870 870 870 870 871 871 871 871 871 872 873 873 873 873 873 873 874 874 874 874 874 874 874 874
814 811 808 806 804 803 802 800 799 798 797 795 795 795 795 795 797 800 802 801 802 806 809 810 813 815 817 818 819 821 823 824 826 828 830 832 834 836 837 838 841 843 844 846 848 849 851 851 853 854 855 857 858 860 861 862 864 865 866 867 867 868 868 868 868 868 869 869 869 869 869 870 870 871 871 871 871 872 872 872 872 872 873 873 873
818 815 813 811 809 808 807 806 804 802 801 800 799 798 798 799 800 802 802 802 803 806 808 809 811 812 813 815 816 818 819 821 823 824 826 828 830 832 834 835 837 839 841 843 844 846 847 848 850 851 852 854 855 856 858 859 860 861 862 863 864 865 865 866 866 866 866 866 866 867 867 867 868 868 868 869 869 869 869 869 870 870 871 871 871
819 817 815 814 813 813 812 810 809 807 805 804 802 801 801 801 801 802 803 803 804 805 806 808 809 810 811 811 813 815 816 818 820 821 823 825 827 829 831 832 834 835 837 839 841 842 844 845 847 848 849 851 852 853 854 855 856 858 859 860 860 861 862 862 863 863 863 864 864 864 865 865 865 865 865 866 867 867 867 867 867 868 868 869 869
821 819 819 818 818 817 816 815 813 811 808 807 805 804 803 802 802 802 802 802 803 804 804 805 806 807 808 809 810 812 813 815 817 818 820 822 824 826 827 829 831 832 834 836 838 839 841 842 844 845 846 847 848 849 850 851 852 854 855 856 857 857 858 859 859 859 860 861 861 862 862 862 862 862 863 863 864 864 865 865 865 865 865 866 866
824 823 823 822 821 821 819 817 815 813 812 810 808 807 805 804 803 802 802 802 801 801 802 802 803 803 804 806 808 809 810 812 813 815 816 818 821 823 824 826 827 829 831 833 834 836 838 839 840 841 842 844 844 845 845 847 848 850 851 852 853 853 854 855 856 856 857 857 858 858 859 859 859 859 860 860 860 861 862 862 862 862 863 863 863
827 827 826 824 823 823 821 819 817 816 815 813 811 809 807 806 804 803 802 801 801 800 800 800 800 801 802 803 805 806 807 809 810 811 813 815 817 819 821 822 824 826 827 829 831 832 833 835 836 837 839 840 840 840 841 842 844 846 848 849 849 850 850 851 852 852 853 854 854 855 855 855 856 856 856 857 857 858 858 858 859 859 860 860 860
829 829 828 826 825 824 822 821 819 818 817 816 814 811 809 807 805 804 803 801 801 800 799 799 799 800 800 801 802 804 805 806 807 809 810 812 814 816 817 819 820 822 823 825 827 828 829 831 832 833 834 835 835 836 837 838 840 842 844 845 846 846 847 847 848 848 849 850 851 852 852 852 852 852 853 853 854 854 854 854 855 856 856 857 857
831 831 830 829 828 826 825 823 821 820 819 818 816 814 811 808 806 804 803 802 800 799 799 798 798 798 798 798 799 801 802 803 804 806 807 809 811 813 814 815 816 818 820 821 822 823 824 826 828 829 830 830 831 831 832 834 836 838 840 842 843 843 843 843 844 844 845 846 847 848 848 849 849 848 849 850 850 850 850 851 852 852 853 853 853
834 832 831 831 830 828 827 825 823 822 821 819 818 815 812 809 807 805 803 802 800 799 798 798 797 797 797 797 798 799 799 800 802 803 805 807 808 809 810 812 814 815 816 817 818 820 821 822 823 824 825 826 826 827 827 829 831 833 835 837 839 839 840 840 840 841 841 842 843 843 844 844 845 845 845 846 847 847 847 848 848 849 849 849 850
835 834 832 832 830 828 827 825 824 823 821 820 818 815 812 810 807 805 803 802 800 799 798 797 797 796 796 796 796 797 797 798 799 801 802 803 804 805 806 808 810 812 812 812 814 816 817 817 818 819 820 821 821 822 823 825 826 828 831 833 834 835 836 836 836 837 837 838 839 839 840 840 841 841 841 842 843 844 845 845 845 846 846 846 846
836 834 833 832 831 829 827 825 824 823 822 820 818 815 813 810 807 806 803 801 800 799 798 798 797 796 795 795 795 795 795 796 797 798 799 800 801 802 803 805 807 808 809 809 810 812 812 813 814 815 816 816 816 817 819 820 821 823 826 829 830 831 831 832 832 832 833 834 834 835 836 836 837 837 837 838 840 841 842 842 842 842 843 843 842
837 835 834 833 831 830 829 827 825 823 822 820 818 816 813 810 808 806 803 802 801 800 799 798 797 796 795 795 794 794 794 794 794 795 795 796 797 798 799 801 803 804 805 805 806 807 808 809 810 810 811 810 810 811 814 815 816 819 822 824 825 826 827 827 827 827 828 829 830 830 831 832 832 832 832 834 836 838 839 839 839 839 840 839 839
837 835 834 832 831 830 828 827 825 823 822 820 817 815 813 810 808 806 804 803 801 800 799 798 797 796 795 794 794 793 793 792 792 792 792 792 793 794 796 798 800 801 801 802 802 803 804 805 805 806 806 805 805 806 808 810 812 814 817 819 820 821 822 822 822 823 824 824 825 825 827 828 828 827 828 830 832 833 835 835 835 836 836 836 835
836 835 833 832 830 829 827 826 824 822 821 819 817 815 813 810 808 806 804 803 801 800 799 797 796 795 793 793 792 792 791 791 790 790 790 790 791 792 793 795 796 797 798 799 800 800 800 800 801 801 801 802 802 802 804 805 806 809 812 814 815 817 817 816 817 818 819 820 820 820 821 822 822 823 824 825 827 829 830 830 831 833 833 832 831
834 833 832 831 829 827 826 824 823 822 820 818 817 815 812 810 808 806 805 803 801 800 798 797 795 794 792 792 791 790 789 789 788 788 788 788 788 789 791 792 793 794 795 795 796 797 796 796 796 797 797 797 798 798 799 800 802 804 806 808 810 811 811 811 812 813 814 815 815 815 815 816 817 818 819 820 822 824 825 826 828 828 828 827 828
833 832 831 829 828 826 825 823 822 821 819 818 816 814 812 809 807 805 804 803 801 799 797 796 795 793 792 790 789 788 787 786 786 785 785 785 785 786 787 788 789 790 791 791 792 793 792 792 792 793 793 793 793 793 795 796 797 799 801 803 805 805 805 806 807 809 810 811 810 810 809 809 811 812 814 816 817 819 820 822 823 823 823 824 825
831 830 829 828 825 824 823 821 820 819 818 816 815 813 811 809 806 804 803 802 801 799 797 795 793 791 790 788 787 786 785 784 784 783 783 783 784 784 784 784 785 785 786 787 787 788 788 788 788 788 788 788 788 788 790 791 792 793 795 797 798 798 800 802 804 804 805 805 805 804 803 804 806 807 809 811 813 815 816 817 817 817 819 821 822
828 827 827 826 824 822 820 819 818 817 816 815 814 812 810 808 805 803 802 801 799 797 795 794 792 790 788 786 784 783 783 783 783 781 781 781 782 782 780 780 780 781 782 782 783 783 784 784 784 783 783 783 783 783 785 786 787 788 789 791 792 793 795 799 800 799 798 799 799 799 799 800 802 804 805 807 809 810 811 811 812 814 815 817 818
826 825 824 824 822 820 817 816 815 815 814 813 812 810 808 807 804 802 800 799 797 796 794 792 790 789 787 785 783 782 781 781 780 779 778 778 779 779 777 776 777 777 778 778 778 779 779 779 779 778 778 778 778 778 779 780 781 783 784 785 787 788 791 793 794 793 793 794 794 794 795 797 799 800 801 803 805 805 806 806 808 810 812 814 815
825 823 822 821 820 818 815 813 812 812 811 810 809 808 806 804 803 801 799 797 796 794 792 790 789 787 785 783 782 780 779 778 778 778 777 776 777 777 775 774 773 774 774 773 773 774 774 774 773 773 772 773 773 773 774 774 776 777 779 780 782 783 785 787 788 787 788 790 791 791 792 794 795 796 798 799 800 800 801 803 805 807 809 810 811
822 821 819 818 816 815 813 810 808 808 809 807 806 806 804 801 800 799 797 796 794 792 790 788 787 786 784 781 780 779 777 776 775 775 775 774 774 774 772 771 770 770 769 769 769 769 769 768 768 768 767 768 769 769 769 770 771 772 773 775 777 778 780 782 782 782 783 786 787 788 789 790 791 792 793 794 794 796 797 799 801 803 804 805 806
819 818 817 816 814 811 810 808 805 804 805 804 803 802 801 799 797 796 795 794 792 791 789 787 785 784 782 780 778 777 776 774 772 772 772 771 771 770 769 768 767 766 766 765 764 764 764 763 763 762 763 764 764 764 764 765 766 767 768 769 772 773 774 776 777 778 779 782 784 785 786 787 788 788 789 789 790 792 794 794 796 797 798 799 800
815 815 814 812 811 808 806 805 802 800 801 801 799 798 797 796 795 793 792 791 790 788 786 785 784 782 781 778 776 774 774 772 771 770 770 769 768 767 766 765 763 763 762 761 760 759 758 758 757 757 758 759 759 759 758 759 761 762 762 764 765 766 768 769 770 771 775 778 781 782 783 784 784 784 785 785 787 788 789 789 790 792 793 793 794
812 811 810 809 808 805 803 801 798 796 797 797 796 794 794 793 792 791 790 788 786 785 784 783 782 780 778 776 774 772 771 770 769 767 767 767 766 765 764 762 760 761 760 759 757 756 754 754 754 753 754 754 753 752 751 752 755 757 758 758 759 760 762 763 764 768 773 776 777 778 778 779 779 780 780 781 782 783 784 784 785 786 788 789 789
809 808 806 805 804 803 800 797 795 793 792 792 791 790 790 789 789 788 787 786 784 783 781 780 779 778 775 772 771 770 769 768 766 765 764 763 762 762 761 759 758 757 757 756 754 752 751 752 751 750 749 749 748 746 747 749 751 753 754 755 756 757 759 760 763 768 773 774 773 773 773 773 774 774 775 776 777 778 778 779 780 781 782 783 784
806 804 803 801 800 799 797 794 791 789 788 786 786 785 785 785 785 785 784 783 782 781 779 777 776 774 771 769 767 767 766 764 762 761 761 759 757 756 755 755 754 753 752 751 750 748 748 748 748 746 746 746 745 744 746 748 749 750 751 753 754 755 757 758 761 765 768 768 767 767 767 767 768 769 770 771 772 773 773 774 775 776 777 777 778